GFSNGP_2pvu_pres_108.txt.gz
Presure
401 396 355 358 383 354 258 345 353 345 287 263 239 230 224 228 226 213 207 210 208 205 196 214 189 213 208 197 197 203 194 176 204 163 195 209 181 211 227 190 191 192 202 189
358 361 355 290 366 359 357 335 338 320 288 258 236 229 220 215 225 224 209 184 213 208 191 211 221 190 201 210 209 185 183 199 178 194 163 198 207 219 185 229 212 220 184 183
362 348 351 364 342 353 354 326 319 308 274 258 230 228 221 211 217 224 217 209 217 199 197 210 202 193 186 189 201 200 183 211 224 213 186 201 194 201 231 203 195 222 220 219
349 337 352 334 323 353 332 318 322 300 282 254 234 236 218 220 183 219 227 216 214 203 205 204 204 202 189 202 180 201 187 198 169 208 208 194 188 187 197 192 225 201 189 203
333 337 327 329 331 350 324 310 310 296 267 271 246 235 227 222 224 222 217 210 214 208 209 200 200 198 209 212 158 192 193 198 185 213 213 185 201 206 203 191 197 200 226 219
330 331 326 330 333 335 319 310 295 306 277 252 257 230 232 229 221 139 222 220 211 195 197 207 210 198 213 198 186 189 195 195 191 212 239 233 201 201 199 185 202 203 204 191
351 352 277 331 330 328 335 311 290 288 282 255 263 248 231 232 206 232 234 233 232 225 234 204 210 209 211 193 193 187 177 185 191 183 186 201 213 221 202 194 200 195 205 205
430 341 341 373 327 343 332 332 311 272 279 277 256 253 236 231 237 236 226 221 218 219 210 214 215 209 210 199 213 207 204 208 195 196 210 207 202 225 220 221 215 214 205 213
378 388 373 358 376 334 329 313 318 284 267 277 266 246 237 228 230 225 226 221 220 219 221 219 220 227 240 221 218 227 218 211 221 191 201 201 217 222 225 214 221 212 220 216
297 312 326 331 333 325 332 176 192 296 262 264 271 264 244 229 226 231 232 225 226 222 221 225 226 226 232 201 203 201 195 196 195 219 200 200 203 217 208 204 206 203 198 206
295 295 299 302 306 297 321 338 321 288 296 261 261 246 255 260 238 232 230 231 232 229 239 250 241 221 208 205 205 201 201 203 206 216 222 211 211 209 208 205 205 206 209 202
279 291 297 300 291 285 318 335 320 294 259 263 256 247 238 239 245 245 249 203 246 235 219 209 229 202 212 203 205 208 208 224 215 215 224 210 207 205 204 205 207 202 226 230
281 285 321 301 319 325 323 329 313 296 288 262 284 247 245 238 238 238 239 238 233 228 226 225 212 209 219 218 206 211 213 215 224 249 232 218 212 208 204 209 210 204 206 202
294 298 299 306 297 303 174 308 298 178 268 296 296 285 256 244 243 237 235 233 234 232 234 228 224 222 222 222 224 162 224 224 222 217 211 205 212 212 214 210 215 217 230 228
289 288 288 295 288 296 295 286 278 278 279 286 294 303 311 290 252 245 244 201 240 233 233 235 234 234 234 234 232 241 242 203 227 220 220 222 224 228 224 220 229 231 225 238
283 286 289 301 284 305 289 274 269 270 271 274 279 287 292 292 298 298 267 253 248 245 243 233 220 227 229 215 235 236 240 243 250 259 253 248 249 251 251 274 249 245 263 238
270 272 278 287 278 286 279 272 273 272 272 274 274 277 274 276 180 287 297 305 302 301 271 184 252 248 242 247 250 244 263 263 295 265 267 272 262 249 242 261 235 243 217 238
227 245 275 280 275 276 280 292 293 307 276 294 270 272 269 273 271 272 276 282 281 291 292 172 264 289 286 286 272 265 246 241 267 258 267 267 262 254 242 246 222 235 243 241
269 270 272 274 276 272 274 278 281 284 283 296 290 300 308 293 279 273 262 269 267 279 273 278 274 267 271 273 271 260 263 258 250 257 258 258 241 251 260 243 244 247 242 245
277 274 276 271 268 271 276 274 277 279 275 280 286 276 284 301 277 275 275 279 275 271 280 272 267 264 266 258 256 255 260 268 256 247 260 232 250 260 259 259 251 231 238 242
272 275 281 282 279 279 272 272 272 280 285 287 293 286 280 270 283 300 274 281 283 272 266 269 272 259 256 244 258 277 254 258 255 244 246 240 244 268 242 239 241 242 248 244
268 270 273 273 267 283 282 278 275 269 271 272 273 275 280 293 284 278 289 285 268 267 272 272 259 270 280 253 253 267 247 253 261 262 240 238 244 246 241 233 234 243 240 239
260 271 270 273 277 259 282 285 277 274 272 270 270 268 265 265 267 278 290 284 279 288 293 277 275 273 263 269 270 271 261 263 249 241 243 252 249 248 257 252 250 251 247 245
178 334 136 274 276 285 262 267 274 287 282 270 274 272 269 268 266 270 264 276 276 276 291 303 291 267 263 262 262 263 265 272 266 273 262 237 257 252 249 246 252 266 266 263
332 331 332 341 349 352 275 292 261 282 282 295 276 267 267 265 268 277 271 271 266 266 265 274 275 286 291 295 301 297 290 283 289 291 281 277 276 273 267 264 261 259 264 267
317 319 320 327 283 338 175 338 349 362 314 274 284 281 275 270 269 265 262 269 264 261 255 266 262 264 261 265 271 267 280 274 275 317 309 314 309 299 291 288 289 284 284 289
307 305 304 324 332 328 258 315 236 251 344 346 276 274 279 259 258 260 275 260 261 258 253 257 272 259 255 255 264 289 287 270 275 290 306 300 297 287 282 282 283 290 292 284

GFSNGP_2pvu_pres_111.txt.gz
Presure
226 278 210 259 261 263 264 265 273 268 278 283 386 361 295 252 245 249 235 230 211 219 204 195 197 208 207 197 210 178 193 190 194 200 188 206 213 213 180 211 193 190 207 202
362 272 271 273 279 285 291 295 387 373 169 97 366 322 260 241 233 235 226 222 214 222 206 199 196 199 199 208 183 183 199 181 205 183 207 216 168 200 209 208 192 218 174 204
386 379 348 206 110 364 374 385 392 162 353 357 321 288 251 242 227 241 239 218 218 220 211 206 200 194 201 204 221 199 208 212 205 216 193 197 194 201 199 205 221 197 202 210
252 384 382 374 366 363 388 376 380 357 275 331 302 268 237 239 234 225 241 223 228 219 217 206 193 185 186 198 195 209 202 202 208 208 199 202 216 177 205 177 193 207 207 213
368 366 371 360 350 360 366 380 373 344 334 314 282 260 231 232 229 223 229 226 238 219 219 194 208 198 202 224 216 192 191 201 199 208 199 197 197 198 178 192 213 204 199 204
350 355 359 336 142 344 351 354 350 343 324 287 264 256 238 234 235 230 220 231 234 233 214 210 210 202 190 190 196 205 199 198 204 217 199 193 207 195 168 215 194 195 174 202
341 343 326 338 322 334 330 324 367 349 318 285 259 251 247 237 231 245 184 236 220 216 163 224 221 203 204 201 192 196 183 192 198 218 174 170 212 197 205 214 183 213 210 206
364 316 321 328 322 317 319 331 352 330 319 297 257 252 247 242 235 247 236 231 210 231 230 235 213 192 193 192 190 200 198 190 206 207 181 195 207 201 195 212 186 195 190 201
421 337 349 333 314 313 324 337 331 316 320 302 263 253 244 236 235 223 237 237 234 227 203 236 230 205 198 199 195 202 199 184 205 195 192 197 194 207 211 187 172 204 196 211
383 387 347 346 336 323 325 317 336 304 300 282 269 255 240 239 234 235 243 234 242 229 234 214 192 198 201 193 203 213 223 194 208 197 196 205 191 214 199 213 213 193 198 193
310 317 322 345 340 325 318 344 354 315 317 299 289 254 244 244 231 231 229 229 230 217 218 227 220 220 214 213 221 208 204 214 200 197 196 207 221 201 197 201 197 199 209 215
300 305 302 304 314 328 332 321 333 357 300 287 295 286 261 240 244 229 229 231 246 249 243 228 222 211 219 210 208 209 212 211 214 213 206 219 199 201 197 194 194 204 207 207
303 288 291 310 305 308 310 302 343 293 317 288 282 286 278 265 252 245 235 224 228 230 229 231 214 231 215 211 206 206 212 212 212 221 220 197 204 202 201 201 201 213 209 210
270 297 296 300 304 306 294 289 319 343 342 331 281 274 283 288 256 255 258 242 241 235 233 231 234 232 219 227 232 212 222 224 237 235 209 203 205 204 209 204 203 203 207 226
279 277 299 312 308 300 313 310 312 316 319 318 301 296 273 269 278 268 258 246 248 241 235 236 230 224 222 228 218 221 244 226 191 209 213 214 212 210 205 210 204 211 200 236
284 285 285 290 291 297 291 296 297 299 297 297 253 287 286 250 282 267 274 261 261 250 241 235 231 228 232 241 247 246 219 206 219 214 212 223 212 203 201 217 215 223 225 213
283 285 281 294 284 289 285 286 287 285 284 281 282 285 292 297 281 289 275 267 254 245 245 248 247 248 249 241 239 240 229 228 226 226 225 224 164 229 218 228 228 225 229 238
274 277 283 282 280 285 285 289 284 276 273 273 273 276 281 283 284 292 298 308 286 266 258 250 245 243 241 239 238 236 235 237 236 231 237 236 235 234 237 238 240 268 279 275
266 192 276 278 273 273 276 285 277 272 271 267 265 269 272 273 273 276 279 288 294 295 298 292 272 261 254 247 245 241 243 247 247 250 251 260 273 278 284 278 261 251 241 258
270 273 276 278 278 279 279 280 283 280 273 282 276 273 270 271 273 271 271 274 276 278 283 298 298 288 291 295 287 283 282 277 275 274 273 272 273 270 267 260 264 254 254 249
279 280 279 272 274 275 272 271 279 280 283 286 282 282 281 300 297 303 311 275 277 268 270 268 268 276 269 288 279 284 280 276 276 272 272 266 267 264 263 256 259 256 249 251
273 276 274 268 278 283 278 274 276 272 272 275 282 282 286 284 280 279 276 289 305 291 289 284 277 273 272 277 274 263 263 267 271 267 263 263 261 264 254 275 260 260 262 259
277 273 276 279 283 284 281 282 283 288 287 280 272 274 275 277 280 285 295 286 285 278 279 301 284 270 281 280 272 277 277 266 254 255 257 257 263 268 260 251 270 272 262 247
170 276 268 276 262 273 147 280 283 287 286 285 291 289 283 278 267 274 275 276 276 284 291 287 284 284 288 288 282 265 272 271 275 276 276 270 261 265 260 261 262 256 261 268
346 347 346 350 353 341 284 296 268 305 283 282 281 281 290 288 284 282 277 270 273 271 272 274 270 279 286 286 280 281 283 283 287 293 297 300 288 282 292 292 290 292 286 289
315 320 324 325 324 327 331 334 335 345 352 298 318 306 281 281 287 285 279 276 272 269 270 274 275 274 274 269 269 269 271 270 267 268 268 266 263 262 262 264 270 289 289 282
327 312 311 316 315 311 324 334 327 332 341 339 338 328 358 276 281 276 280 281 277 269 266 268 268 270 273 271 267 265 268 268 255 254 259 268 274 279 277 281 288 275 277 305

GFSNGP_2pvu_pres_114.txt.gz
Presure
103 233 255 266 271 260 252 252 259 264 274 257 259 275 243 232 233 248 338 307 280 271 241 225 215 209 202 197 197 185 195 190 199 204 207 210 197 213 200 189 224 250 179 193
367 326 276 262 262 277 279 277 283 83 292 279 145 267 264 273 282 314 289 278 263 260 228 203 215 210 202 202 198 189 200 210 189 193 178 205 211 192 206 198 183 214 220 252
359 295 280 294 237 269 263 271 169 290 281 260 240 280 284 360 404 295 265 258 250 247 215 208 206 190 206 204 204 201 184 190 195 187 194 203 215 183 205 197 206 204 181 211
384 366 373 194 95 373 330 378 150 274 298 266 384 362 196 382 310 267 263 253 243 238 248 208 209 209 207 205 164 199 199 186 196 198 203 194 200 212 204 195 199 177 182 194
404 397 389 419 398 387 394 387 389 402 403 427 371 351 342 365 272 256 257 242 253 238 231 213 217 203 209 202 189 188 194 197 199 205 193 223 196 212 195 211 166 208 200 208
361 373 368 358 365 374 369 369 368 378 375 394 360 338 340 285 260 252 239 240 251 236 227 212 172 211 200 202 213 190 187 191 180 214 212 200 203 202 211 203 194 194 183 213
337 344 358 369 362 355 353 324 321 335 373 363 361 340 338 274 255 250 245 236 233 249 233 221 209 218 203 196 203 198 203 205 192 213 210 182 192 205 193 214 208 201 203 222
327 331 357 351 344 335 323 305 302 308 332 361 372 337 291 267 253 247 245 245 233 241 238 229 218 219 207 197 202 204 202 204 210 226 196 199 201 202 210 212 232 194 210 195
401 401 317 321 325 318 311 309 301 323 334 367 346 328 279 259 256 246 243 258 245 209 242 241 221 207 218 200 206 210 208 183 187 193 198 198 205 202 194 223 193 208 186 190
382 318 311 306 309 305 304 298 305 306 327 360 330 321 271 259 251 249 238 250 239 248 226 226 228 209 217 213 213 196 203 190 193 198 197 182 193 195 202 194 223 217 212 207
327 318 314 307 298 297 296 318 329 310 330 352 345 307 274 257 243 253 258 239 235 245 245 230 226 236 219 206 205 210 207 206 220 194 193 193 191 200 191 211 203 210 214 201
296 303 317 314 313 265 296 303 309 324 341 349 351 297 275 256 247 245 208 245 229 239 235 244 223 233 221 202 204 202 194 196 194 190 199 193 191 194 210 215 213 197 189 201
296 290 299 300 303 321 315 318 301 329 308 358 340 291 276 270 257 238 252 245 241 237 236 230 237 237 239 216 231 226 222 205 211 204 202 204 193 216 223 192 196 209 208 213
302 297 278 310 296 297 297 304 313 320 322 346 325 336 272 270 262 261 242 249 247 250 236 236 234 223 220 224 226 214 205 197 206 200 201 197 208 208 204 210 213 211 194 210
270 291 293 290 281 288 296 299 307 304 319 302 349 328 300 259 256 255 261 244 235 250 235 234 231 227 219 226 202 217 219 212 207 207 215 216 212 212 205 211 203 211 211 207
273 271 278 290 298 301 297 318 302 292 300 318 326 330 340 317 265 247 251 257 244 240 232 226 243 238 232 228 229 235 239 249 225 215 215 228 214 211 212 214 209 212 240 240
284 282 290 282 286 300 296 296 299 300 314 312 319 326 331 298 308 297 252 251 250 235 238 239 235 232 229 235 236 234 226 219 215 223 212 225 210 204 212 224 203 242 235 202
276 276 279 283 284 287 290 290 290 291 295 300 299 301 303 311 315 297 295 298 262 249 251 238 232 232 232 233 236 235 235 233 228 233 225 229 240 220 216 232 244 237 216 217
275 275 279 281 280 282 287 278 284 285 280 286 291 290 288 291 293 300 303 296 290 292 294 286 273 262 252 252 250 253 250 246 239 225 223 223 229 214 248 242 236 239 236 238
275 275 273 275 278 277 277 285 279 276 282 291 275 276 279 281 279 279 283 286 292 294 298 286 280 296 297 287 274 259 260 261 257 255 251 250 247 245 245 245 244 243 244 254
272 226 223 273 275 277 280 282 281 283 278 273 283 275 268 266 268 271 274 277 276 276 283 290 289 290 297 303 305 302 278 274 267 261 261 260 258 260 261 264 287 295 276 289
270 268 266 273 278 277 279 279 277 276 279 284 286 278 273 280 273 267 269 271 270 271 274 276 276 275 281 280 281 289 290 301 292 283 298 296 297 290 286 287 274 271 275 279
272 273 275 282 283 281 279 277 281 286 285 282 278 282 285 287 284 283 281 284 288 281 268 267 279 274 268 272 277 273 272 276 284 280 278 270 276 278 266 262 264 267 263 262
273 285 287 271 277 280 270 280 271 279 286 286 285 288 288 286 284 281 287 287 287 284 280 281 278 280 296 300 288 271 274 273 267 267 275 278 270 267 266 269 275 277 271 266
183 169 287 356 358 320 172 182 189 279 280 283 289 294 292 290 287 289 292 290 284 285 288 287 288 293 289 285 286 276 267 277 285 287 284 285 287 287 287 289 291 289 286 281
333 328 322 316 325 331 344 343 341 289 340 342 347 266 262 265 271 277 284 291 294 291 287 280 279 281 282 279 277 278 280 279 279 281 282 281 281 279 274 269 273 267 266 256
313 325 342 351 355 327 330 335 326 328 333 334 334 341 348 347 341 294 353 277 283 287 292 293 288 283 281 277 277 274 272 273 276 278 281 282 271 268 266 261 258 262 261 268

GFSNGP_2pvu_pres_117.txt.gz
Presure
333 280 268 264 266 264 260 257 261 260 266 253 254 207 252 245 171 245 243 244 248 264 285 268 297 301 233 223 216 209 208 205 200 193 202 193 212 221 191 215 203 243 229 239
321 339 312 280 126 267 145 263 272 274 280 273 246 254 145 261 251 245 170 257 258 270 263 390 310 255 227 220 208 211 209 202 190 190 192 190 192 192 228 191 209 219 235 207
416 379 305 308 348 279 276 269 269 269 266 255 88 236 279 258 214 251 269 284 266 258 344 335 283 240 229 216 211 206 208 205 192 191 201 194 178 182 202 203 204 204 199 203
405 379 401 392 217 172 318 373 242 282 279 281 271 260 264 267 272 262 265 234 253 254 328 279 253 230 230 215 204 211 202 206 192 193 191 191 200 196 183 204 204 194 187 214
395 406 422 387 367 339 372 378 372 379 383 428 299 311 175 288 285 271 235 266 272 283 298 272 237 220 208 217 207 205 204 195 195 192 203 189 199 199 191 197 189 215 191 206
359 368 373 376 395 421 446 464 450 391 386 378 386 409 342 379 399 377 361 341 308 284 298 261 232 226 207 217 204 208 201 207 200 177 189 188 183 190 207 207 183 195 220 209
347 352 356 360 377 378 382 352 343 327 325 339 365 379 392 399 367 360 353 309 288 278 287 250 231 226 208 215 205 204 215 213 189 197 195 194 196 193 201 190 214 216 207 213
353 342 324 350 366 345 319 321 319 311 310 336 342 343 375 342 351 340 332 291 275 286 269 250 229 224 211 214 195 198 192 191 202 201 199 201 183 211 180 204 196 181 194 198
409 352 325 328 340 314 307 299 308 316 312 321 333 342 363 357 335 326 291 282 271 280 260 254 232 221 213 210 204 197 180 196 198 210 192 187 187 195 214 194 211 201 190 189
310 309 310 313 317 304 301 317 303 306 312 317 322 355 351 339 326 316 283 269 260 270 247 243 235 228 215 155 209 202 199 205 224 226 223 229 215 209 187 208 224 199 186 204
299 300 292 299 296 297 299 296 302 311 312 310 311 332 342 348 320 308 272 269 260 260 248 250 233 224 215 214 204 206 213 201 190 196 190 218 210 198 190 181 191 194 200 180
304 295 294 292 286 288 293 289 290 297 324 309 318 353 336 347 314 290 269 267 258 249 243 239 250 224 218 214 201 198 197 209 208 203 206 201 193 212 183 194 200 202 201 203
295 301 288 300 282 306 317 293 294 301 304 319 323 356 356 330 309 280 271 268 258 245 241 236 230 227 228 228 215 205 206 201 200 203 202 205 213 208 210 203 205 207 191 195
291 289 278 288 298 294 293 302 309 309 300 323 310 348 341 363 310 274 248 257 249 255 241 242 235 223 239 242 218 206 206 206 204 202 205 205 201 204 199 194 191 195 202 202
293 285 257 292 282 284 288 294 296 301 308 312 325 334 358 307 327 276 262 260 254 249 246 248 239 229 224 224 230 219 218 219 217 215 214 212 200 193 198 200 214 210 199 197
267 277 280 280 288 281 285 293 287 291 303 298 317 317 329 354 331 284 270 260 258 250 253 252 252 228 229 238 239 230 221 213 219 214 214 213 214 214 212 219 214 202 208 202
267 270 274 272 281 283 293 298 294 298 288 288 297 305 318 327 344 320 257 268 258 261 253 252 247 238 248 237 223 239 245 230 225 231 227 233 214 204 230 204 202 201 204 216
284 286 276 282 280 283 287 292 294 298 299 287 285 296 304 318 293 327 309 251 264 258 249 249 250 242 242 236 237 234 228 240 244 235 207 213 226 231 220 220 211 221 212 204
275 276 276 278 277 283 284 286 287 287 292 287 295 300 296 299 305 309 305 317 268 259 253 261 252 247 260 243 249 250 255 237 228 230 230 215 204 204 208 224 209 211 221 220
276 277 278 277 276 279 282 282 286 281 284 297 291 289 291 297 296 302 302 312 317 289 273 267 256 250 248 248 242 235 231 227 231 243 250 250 236 230 236 236 235 233 230 236
275 277 280 279 278 280 281 276 277 280 285 292 284 295 289 293 291 290 291 293 299 306 311 307 275 245 255 242 240 240 231 242 243 240 234 235 232 227 228 234 239 239 243 247
281 280 277 275 273 276 278 281 286 283 283 287 289 281 285 284 284 287 285 286 286 288 288 291 295 300 306 308 278 256 253 250 247 244 241 243 243 241 253 256 267 267 266 265
259 262 262 265 268 271 272 277 282 287 286 287 287 289 293 294 281 285 280 275 276 276 275 277 278 280 280 282 284 285 289 291 293 292 290 287 291 290 298 300 299 282 281 281
294 339 349 360 366 314 303 275 289 277 276 276 278 288 288 290 291 293 296 291 278 284 284 269 272 274 274 273 273 276 278 269 275 281 277 277 279 280 280 276 276 289 283 285
336 337 320 339 340 328 267 347 356 265 316 307 293 279 280 278 278 280 288 292 295 296 293 291 289 288 286 287 282 271 267 267 268 268 272 277 271 267 268 268 269 275 279 281
281 156 265 306 318 329 332 339 153 320 340 363 363 363 321 317 286 288 289 279 287 294 292 293 297 292 287 290 292 292 287 287 285 281 280 281 289 290 291 292 288 280 288 289
275 258 261 287 292 326 378 382 358 339 330 349 339 337 339 342 342 345 349 332 280 280 286 287 294 300 300 299 296 291 287 292 292 291 294 294 290 286 285 284 282 277 272 274